Time,TemperatureF,DewpointF,PressureIn,WindDirection,WindDirectionDegrees,WindSpeedMPH,WindSpeedGustMPH,Humidity,HourlyPrecipIn,Conditions,Clouds,dailyrainin,SoftwareType,DateUTC
2015-01-26 00:03:00,15.0,8.5,29.88,East,90,4.0,6.0,75,0.00,,---,0.00,VWS V15.00,2015-01-26 05:03:00,
2015-01-26 00:09:00,15.0,8.5,29.88,ENE,68,1.0,7.0,75,0.00,,---,0.00,VWS V15.00,2015-01-26 05:09:00,
2015-01-26 00:14:00,15.0,8.5,29.89,ENE,68,5.0,9.0,75,0.00,,---,0.00,VWS V15.00,2015-01-26 05:14:00,
2015-01-26 00:19:00,15.0,8.5,29.89,ENE,68,3.0,9.0,75,0.00,,---,0.00,VWS V15.00,2015-01-26 05:19:00,
2015-01-26 00:24:00,15.0,8.5,29.89,ENE,68,1.0,6.0,75,0.00,,---,0.00,VWS V15.00,2015-01-26 05:24:00,
2015-01-26 00:29:00,15.0,8.5,29.88,ENE,68,3.0,8.0,75,0.00,,---,0.00,VWS V15.00,2015-01-26 05:29:00,
2015-01-26 00:34:00,15.0,8.5,29.88,ENE,68,1.0,8.0,75,0.00,,---,0.00,VWS V15.00,2015-01-26 05:34:00,
2015-01-26 00:39:00,15.0,8.5,29.88,ESE,112,0.0,8.0,75,0.00,,---,0.00,VWS V15.00,2015-01-26 05:39:00,
2015-01-26 00:44:00,15.0,8.5,29.88,ENE,68,3.0,9.0,75,0.00,,---,0.00,VWS V15.00,2015-01-26 05:44:00,
2015-01-26 00:49:00,15.0,8.2,29.88,ENE,68,5.0,9.0,74,0.00,,---,0.00,VWS V15.00,2015-01-26 05:49:00,
2015-01-26 00:54:00,15.0,8.2,29.88,ENE,68,1.0,9.0,74,0.00,,---,0.00,VWS V15.00,2015-01-26 05:54:00,
2015-01-26 00:59:00,15.0,8.2,29.88,SE,135,4.0,9.0,74,0.00,,---,0.00,VWS V15.00,2015-01-26 05:59:00,
2015-01-26 01:04:00,15.0,8.2,29.88,ENE,68,4.0,8.0,74,0.00,,---,0.00,VWS V15.00,2015-01-26 06:04:00,
2015-01-26 01:09:00,15.0,8.5,29.88,East,90,3.0,8.0,75,0.00,,---,0.00,VWS V15.00,2015-01-26 06:09:00,
2015-01-26 01:15:00,15.0,8.2,29.87,ENE,68,5.0,8.0,74,0.00,,---,0.00,VWS V15.00,2015-01-26 06:15:00,
2015-01-26 01:20:00,15.0,8.2,29.87,ENE,68,6.0,6.0,74,0.00,,---,0.00,VWS V15.00,2015-01-26 06:20:00,
2015-01-26 01:25:00,15.0,8.2,29.87,ENE,68,8.0,9.0,74,0.00,,---,0.00,VWS V15.00,2015-01-26 06:25:00,
2015-01-26 01:30:00,15.0,8.2,29.87,NE,45,6.0,10.0,74,0.00,,---,0.00,VWS V15.00,2015-01-26 06:30:00,
2015-01-26 01:35:00,15.0,8.2,29.87,ENE,68,5.0,10.0,74,0.00,,---,0.00,VWS V15.00,2015-01-26 06:35:00,
2015-01-26 01:40:00,15.0,8.2,29.87,East,90,6.0,9.0,74,0.00,,---,0.00,VWS V15.00,2015-01-26 06:40:00,
2015-01-26 01:45:00,15.0,7.9,29.87,ENE,68,6.0,11.0,73,0.00,,---,0.00,VWS V15.00,2015-01-26 06:45:00,
2015-01-26 01:50:00,15.0,7.9,29.87,East,90,2.0,11.0,73,0.00,,---,0.00,VWS V15.00,2015-01-26 06:50:00,
2015-01-26 01:55:00,15.0,7.9,29.87,ENE,68,3.0,12.0,73,0.00,,---,0.00,VWS V15.00,2015-01-26 06:55:00,
2015-01-26 02:00:00,15.0,7.6,29.86,ENE,68,3.0,5.0,72,0.00,,---,0.00,VWS V15.00,2015-01-26 07:00:00,
2015-01-26 02:05:00,15.0,7.6,29.86,ENE,68,4.0,7.0,72,0.00,,---,0.00,VWS V15.00,2015-01-26 07:05:00,